Weather History for West Plains, MO

Change the Weather History Date:

Tuesday, January 8, 2013

  Actual Average Record
Temperature  
Mean Temperature 38 °F 34 °F  
Max Temperature 53 °F 44 °F 71 °F (2006)
Min Temperature 23 °F 23 °F -5 °F (1970)
Degree Days  
Heating Degree Days 27 31  
Month to date heating degree days 266 248  
Since 1 July heating degree days 1934 1993  
Cooling Degree Days 0 0  
Month to date cooling degree days 0 0  
Year to date cooling degree days 0 0  
Moisture  
Dew Point 29 °F    
Average Humidity 61    
Maximum Humidity 83    
Minimum Humidity 39    
Precipitation  
Precipitation 0.04 in 0.06 in 0.93 in (1998)
Month to date precipitation 0.05 0.53  
Year to date precipitation 0.05 0.53  
Sea Level Pressure  
Sea Level Pressure 30.18 in    
Wind  
Wind Speed 0 mph (South)    
Max Wind Speed 0 mph    
Max Gust Speed 0 mph    
Visibility 9 miles    
Events Rain    
T = Trace of Precipitation, MM = Missing Value Source: NWS Daily Summary

Daily Weather History Graph

Daily Weather History Graph

Search for Another Location

Airport:

Trip Planner

Search our weather history database for the weather conditions in past years. The results will help you decide how hot, cold, wet, or windy it might be!

Date:

Astronomy

Jan. 08, 2013 Rise Set
Actual Time 7:20 AM CST 5:08 PM CST
Civil Twilight 6:52 AM CST 5:36 PM CST
Nautical Twilight 6:20 AM CST 6:09 PM CST
Astronomical Twilight 5:48 AM CST 6:40 PM CST
Moon 3:54 AM CST (1/8) 2:10 PM CST (1/8)
Length of Visible Light 10h 44m
Length of Day
9h 47m
Waning Crescent, 13% of the Moon is Illuminated
Jan 8
Waning Crescent
Jan 11
New
Jan 18
First Quarter
Jan 26
Full
Feb 3
Last Quarter

Hourly Weather History & Observations

Time (CST) Temp. Windchill Dew Point Humidity Pressure Visibility Wind Dir Wind Speed Gust Speed Precip Events Conditions
12:53 AM 30.0 °F - 21.9 °F 72% 30.19 in 10.0 mi Calm Calm - N/A   Clear
1:53 AM 28.9 °F 25.2 °F 23.0 °F 78% 30.19 in 9.0 mi South 3.5 mph - N/A   Clear
2:37 AM 28.4 °F 22.2 °F 21.2 °F 74% 30.16 in 9.0 mi Variable 5.8 mph 39.1 mph N/A   Squalls
2:53 AM 27.0 °F - 21.9 °F 81% 30.19 in 8.0 mi Calm Calm - N/A   Clear
3:53 AM 27.0 °F - 21.9 °F 81% 30.19 in 8.0 mi Calm Calm - N/A   Clear
4:53 AM 30.0 °F 26.5 °F 23.0 °F 75% 30.18 in 10.0 mi SW 3.5 mph - N/A   Clear
5:53 AM 28.0 °F 24.2 °F 21.9 °F 78% 30.19 in 10.0 mi South 3.5 mph - N/A   Clear
6:53 AM 28.0 °F - 21.9 °F 78% 30.21 in 10.0 mi Calm Calm - N/A   Clear
7:53 AM 27.0 °F 21.6 °F 21.0 °F 78% 30.23 in 8.0 mi SSE 4.6 mph - N/A   Clear
8:53 AM 32.0 °F - 25.0 °F 75% 30.24 in 8.0 mi Calm Calm - N/A   Clear
9:53 AM 39.0 °F 32.8 °F 26.1 °F 60% 30.22 in 10.0 mi South 9.2 mph - N/A   Clear
10:53 AM 44.1 °F 40.1 °F 26.1 °F 49% 30.21 in 10.0 mi South 6.9 mph - N/A   Scattered Clouds
11:53 AM 48.0 °F - 24.1 °F 39% 30.17 in 10.0 mi SSE 6.9 mph - N/A   Overcast
12:53 PM 48.0 °F - 24.1 °F 39% 30.15 in 10.0 mi South 6.9 mph - N/A   Mostly Cloudy
1:53 PM 51.1 °F - 28.0 °F 41% 30.12 in 10.0 mi SSE 9.2 mph - N/A   Clear
2:53 PM 53.1 °F - 30.0 °F 41% 30.14 in 10.0 mi South 12.7 mph - N/A   Clear
3:53 PM 51.1 °F - 33.1 °F 50% 30.13 in 10.0 mi South 6.9 mph - N/A   Mostly Cloudy
4:53 PM 51.1 °F - 34.0 °F 52% 30.15 in 10.0 mi South 6.9 mph - N/A   Overcast
5:27 PM 50.0 °F - 33.8 °F 54% 30.14 in 10.0 mi SSE 6.9 mph - N/A   Overcast
5:49 PM 48.2 °F - 33.8 °F 58% 30.14 in 10.0 mi South 6.9 mph - N/A   Mostly Cloudy
6:53 PM 48.9 °F - 34.0 °F 56% 30.17 in 10.0 mi South 6.9 mph - N/A   Overcast
7:53 PM 48.0 °F - 34.0 °F 58% 30.17 in 10.0 mi SSE 4.6 mph - N/A   Overcast
8:53 PM 46.0 °F 43.9 °F 36.0 °F 68% 30.19 in 10.0 mi South 4.6 mph - 0.00 in   Overcast
9:45 PM 44.6 °F - 39.2 °F 81% 30.19 in 7.0 mi Calm Calm - 0.04 in Rain Light Rain
9:53 PM 44.1 °F - 39.9 °F 85% 30.20 in 8.0 mi Calm Calm - 0.04 in   Overcast
11:46 PM 44.6 °F - 41.0 °F 87% 30.22 in 5.0 mi Calm Calm - 0.00 in   Overcast
11:53 PM 44.1 °F - 41.0 °F 89% 30.23 in 6.0 mi Calm Calm - 0.00 in   Overcast